Home   Weather   Albany   Past weeks

Flag for Australia Past Weather in Albany, Western Australia, Australia — Yesterday and Last 2 Weeks

Now
51 °F

Cool.


Feels Like: 46 °F
Forecast: 47 / 54 °F
Wind: 15 mph from Northwest

Location: Albany Airport

Current Time: Oct 1, 2016 at 2:40:41 AM

Latest Report: Oct 1, 2016 at 2:00 AM


Visibility: N/A

Pressure: 29.41 "Hg

Humidity: 80%

Dew Point: 46 °F

Location of AlbanyLocation

Past Weather in Albany — Graph

°F

Albany Temperature Yesterday

Maximum temperature yesterday: 63 °F (at 2:00 PM)
Minimum temperature yesterday: 43 °F (at 2:00 AM)
Average temperature yesterday: 53 °F

High & Low Weather Summary for the Past Weeks

 TemperatureHumidityPressure
High68 °F (Sep 21, 3:00 PM)99% (Sep 21, 2:00 AM)30.32 "Hg (Sep 21, 2:00 AM)
Low40 °F (Sep 18, 3:00 AM)42% (Sep 21, 3:00 PM)29.47 "Hg (Sep 30, 2:00 PM)
Average51 °F75%29.96 "Hg
* Reported Sep 16 12:00 AM — Oct 1 12:00 AM, Albany, Weather by CustomWeather, © 2016

Note: Actual official high and low records may vary slightly from our data, if they occured in-between our weather recording intervals... More about our weather records

Advertising

Albany Weather History for the Previous 24 Hours

Scroll right to see more
 ConditionsComfort  
Time TempWeatherWind HumidityBarometerVisibility
12:00 AM
Sat, Oct 1
52 °FOvercast.12 mph89%29.50 "HgN/A
11:00 PM
Fri, Sep 30
52 °FCool.12 mph88%29.53 "HgN/A
9:00 PM53 °FOvercast.9 mph88%29.58 "Hg5 mi
8:00 PM53 °FCool.10 mph91%29.58 "HgN/A
6:00 PM54 °FOvercast.18 mph85%29.56 "HgN/A
5:00 PM56 °FCool.23 mph80%29.53 "HgN/A
3:00 PM63 °FOvercast.25 mph55%29.47 "HgN/A
2:00 PM63 °FMild.28 mph55%29.47 "HgN/A
12:00 PM62 °FOvercast.21 mph55%29.54 "HgN/A
11:00 AM61 °FCool.20 mph63%29.56 "HgN/A
9:00 AM55 °FOvercast.13 mph74%29.61 "HgN/A
8:00 AM53 °FCool.16 mph67%29.62 "HgN/A
6:00 AM49 °FCool.13 mph76%29.66 "HgN/A
5:00 AM47 °FCool.10 mph85%29.67 "HgN/A
3:00 AM44 °FPassing clouds.7 mph91%29.74 "HgN/A
2:00 AM43 °FQuite cool.5 mph94%29.77 "HgN/A
Weather by CustomWeather, © 2016

See weather overviewHow to use our weather pages